Location: Betpouey
(42.8833°N, 0.0333°E)
Time: 21:12:00
(UTC+00:00)

NOSS 3-2 (C) - Pass Details

Date: 01 December 2020
Orbit: 789 x 1424 km, 63.4° (Epoch: 09 January)

Event Time Altitude Azimuth Distance (km) Brightness Sun altitude
Rises 18:06:35 0° 188° (S) 3,298 6.6 -17.8°
Reaches altitude 10° 18:09:03 10° 180° (S) 2,408 5.7 -18.3°
Maximum altitude 18:14:04 37° 114° (ESE) 1,339 3.8 -19.2°
Enters shadow 18:15:13 34° 89° (E) 1,440 3.9 -19.4°
